This demonstration page uses our WeatherBlox Daily Observations layout. Learn more.

Left ArrowRight Arrow

44.8408, -93.29828

Hourly Observations for February 10, 2019

Temp ( °F °C ) Dew Point ( °F °C ) Humidity (%) Winds ( mph kmh ) Pressure ( in mb ) Visibility ( mi km ) Precip ( " mm )
12:53 am 00:53 Cloudy 6 -14.4 -1 -18.3 73 73 ENE 6 9 30.57 1035 10 16 0.00 0.00
1:53 am 01:53 Cloudy 7 -13.9 0 -17.8 73 73 ENE 6 9 30.55 1035 10 16 0.00 0.00
2:53 am 02:53 Cloudy 7 -13.9 1 -17.2 76 76 ENE 6 9 30.54 1034 10 16 0.00 0.00
3:53 am 03:53 Cloudy 7 -13.9 1 -17.2 76 76 ENE 6 9 30.50 1033 10 16 0.00 0.00
4:53 am 04:53 Cloudy 8 -13.3 2 -16.7 76 76 ENE 6 9 30.47 1032 10 16 0.00 0.00
5:53 am 05:53 Cloudy with Light Snow 9 -12.8 4 -15.6 80 80 NE 5 7 30.46 1032 4 6 0.00 0.03
6:03 am 06:03 Cloudy with Light Snow 9 -12.8 5 -15 84 84 ENE 5 7 30.50 1033 3 4 0.00 0.03
6:12 am 06:12 Cloudy with Light Snow 9 -12.8 5 -15 84 84 ENE 5 7 30.49 1032 4 6 0.01 0.25
6:27 am 06:27 Cloudy with Light Snow 9 -12.8 6 -14.4 88 88 ENE 6 9 30.49 1032 2 3 0.01 0.25
6:39 am 06:39 Cloudy with Light Snow 10 -12.2 6 -14.4 84 84 NE 6 9 30.48 1032 3 5 0.01 0.25
6:53 am 06:53 Cloudy with Light Snow 10 -12.2 6 -14.4 84 84 ENE 6 9 30.43 1031 3 4 0.01 0.25
7:01 am 07:01 Cloudy with Light Snow 10 -12.2 6 -14.4 84 84 ENE 7 11 30.46 1032 2 3 0.00 0.03
7:35 am 07:35 Cloudy with Light Snow 10 -12.2 7 -13.9 87 87 ENE 7 11 30.45 1031 1 2 0.01 0.25
7:53 am 07:53 Cloudy with Light Snow 11 -11.7 7 -13.9 84 84 ENE 8 13 30.42 1030 1 2 0.02 0.51
8:19 am 08:19 Mostly Cloudy with Snow 11 -11.7 8 -13.3 88 88 ENE 6 9 30.45 1031 1 1 0.00 0.03
8:31 am 08:31 Mostly Cloudy with Heavy Snow 11 -11.7 8 -13.3 88 88 NE 7 11 30.45 1031 0 0 0.03 0.76
8:53 am 08:53 Mostly Cloudy with Light Snow 12 -11.1 9 -12.8 87 87 NE 5 7 30.42 1030 0 0 0.04 1.02
9:09 am 09:09 Mostly Cloudy with Light Snow 12 -11.1 9 -12.8 87 87 NNE 5 7 30.45 1031 1 2 0.01 0.25
9:32 am 09:32 Mostly Cloudy with Light Snow 12 -11.1 9 -12.8 87 87 NNE 7 11 30.45 1031 1 1 0.02 0.51
9:53 am 09:53 Mostly Cloudy with Snow 12 -11.1 9 -12.8 87 87 NNE 7 11 30.40 1030 1 1 0.04 1.02
10:08 am 10:08 Mostly Cloudy with Light Snow 12 -11.1 9 -12.8 87 87 NE 6 9 30.43 1030 1 1 0.01 0.25
10:20 am 10:20 Mostly Cloudy with Light Snow 13 -10.6 10 -12.2 88 88 VRB 6 9 30.42 1030 1 1 0.02 0.51
10:53 am 10:53 Cloudy with Light Snow 14 -10 10 -12.2 84 84 NE 8 13 30.38 1029 1 2 0.03 0.76
11:19 am 11:19 Mostly Cloudy with Snow 14 -10 10 -12.2 84 84 ENE 9 15 30.39 1029 1 1 0.01 0.25
11:30 am 11:30 Mostly Cloudy with Snow 14 -10 11 -11.7 88 88 ENE 7 11 30.39 1029 1 1 0.03 0.76
11:53 am 11:53 Mostly Cloudy with Snow 14 -10 10 -12.2 84 84 NE 8 13 30.36 1028 1 1 0.04 1.02
12:18 pm 12:18 Mostly Cloudy with Light Snow 15 -9.4 11 -11.7 84 84 NE 9 15 30.36 1028 1 1 0.01 0.25
12:53 pm 12:53 Cloudy with Snow 16 -8.9 11 -11.7 80 80 NNE 8 13 30.32 1027 1 1 0.02 0.51
12:59 pm 12:59 Cloudy with Light Snow 16 -8.9 11 -11.7 80 80 NE 8 13 30.35 1028 2 2 0.00 0.03
1:19 pm 13:19 Cloudy with Light Snow 16 -8.9 12 -11.1 84 84 NNE 8 13 30.35 1028 2 2 0.00 0.03
1:34 pm 13:34 Cloudy with Light Snow 16 -8.9 12 -11.1 84 84 NNE 7 11 30.34 1027 1 2 0.01 0.25
1:53 pm 13:53 Mostly Cloudy with Light Snow 16 -8.9 13 -10.6 88 88 NNE 6 9 30.31 1026 1 2 0.02 0.51
2:14 pm 14:14 Mostly Cloudy with Light Snow 16 -8.9 13 -10.6 88 88 NNE 7 11 30.33 1027 1 1 0.00 0.03
2:28 pm 14:28 Mostly Cloudy with Light Snow 17 -8.3 13 -10.6 84 84 NNE 7 11 30.32 1027 1 1 0.00 0.03
2:53 pm 14:53 Cloudy with Light Snow 17 -8.3 13 -10.6 84 84 NNE 6 9 30.29 1026 1 1 0.02 0.51
3:16 pm 15:16 Cloudy with Light Snow 17 -8.3 13 -10.6 84 84 NNE 8 13 30.32 1027 2 2 0.00 0.03
3:36 pm 15:36 Cloudy with Light Snow 17 -8.3 14 -10 88 88 NNE 7 11 30.31 1026 1 1 0.00 0.03
3:53 pm 15:53 Cloudy with Light Snow 17 -8.3 13 -10.6 84 84 NNE 8 13 30.29 1026 1 1 0.01 0.25
3:57 pm 15:57 Cloudy with Light Snow 17 -8.3 13 -10.6 84 84 N 8 13 30.31 1026 2 2 0.00 0.03
4:24 pm 16:24 Cloudy with Light Snow 17 -8.3 13 -10.6 84 84 NNE 7 11 30.31 1026 3 5 0.00 0.03
4:31 pm 16:31 Cloudy with Light Snow 17 -8.3 13 -10.6 84 84 NNE 7 11 30.31 1026 3 5 0.00 0.03
4:53 pm 16:53 Mostly Cloudy with Light Snow 16 -8.9 12 -11.1 84 84 NNE 7 11 30.28 1026 5 8 0.00 0.03
5:53 pm 17:53 Cloudy with Light Snow 16 -8.9 12 -11.1 84 84 N 7 11 30.30 1026 8 13 0.00 0.03
6:12 pm 18:12 Cloudy with Light Snow 16 -8.9 13 -10.6 88 88 NNE 9 15 30.32 1027 7 11 0.00 0.03
6:53 pm 18:53 Cloudy with Light Snow 16 -8.9 12 -11.1 84 84 NNE 7 11 30.29 1026 8 13 0.00 0.03
7:53 pm 19:53 Cloudy with Light Snow 15 -9.4 12 -11.1 88 88 NNE 6 9 30.29 1026 8 13 0.00 0.03
8:53 pm 20:53 Cloudy with Light Snow 15 -9.4 13 -10.6 91 91 NNE 6 9 30.29 1026 7 11 0.00 0.03
9:53 pm 21:53 Cloudy with Light Snow 16 -8.9 13 -10.6 88 88 N 3 6 30.29 1026 7 11 0.00 0.03
10:53 pm 22:53 Cloudy with Light Snow 17 -8.3 14 -10 88 88 NNE 6 9 30.29 1026 6 10 0.00 0.03
11:53 pm 23:53 Cloudy with Light Snow 18 -7.8 15 -9.4 88 88 E 5 7 30.30 1026 7 11 0.00 0.03

Powered by AerisWeather